www.pogodaiklimat.ru

Погода и климат >> Архив погоды >> Россия >> Якутия >> Ленск


АРХИВ ПОГОДЫ в Ленске

Время (UTC), дата Ветер
(напр.,м/с)
 
Видим.   Явления Облачность Т
(С)
Тd
(С)
f
(%)
Тe
(С)
Тes
(С)
Комфортность P
(гПа)
Po
(гПа)
Тmin
(С)
Tmax
(С)
R
(мм)
R24
(мм)
S
(см)
00 11.06 штиль 0 50 км 10/3 1500 м
[Cb cap Ac cast Cs]
+16.2 +14.3 89 +16 +19 998.3 970.5 +13.0 0.1
03 11.06 Ю 2 50 км в посл. час ливневой дождь 9/3 1500 м
[Cb cap Ac cuf Ci fib]
+19.2 +13.6 70 +21 +26 комфорт 995.7 968.2
06 11.06 нст 1 50 км {ливн. осадки} 8/0
[Ac trans Cc]
+25.2 +14.5 51 +28 +38 жарко 992.7 965.8
09 11.06 СВ 2 50 км 8/4 1500 м
[Cb cap Ac cuf Ci fib]
+26.0 +13.7 47 +28 +30 жарко 989.9 963.2
12 11.06 нст 1 50 км в посл. час ливневой дождь 10/8 1380 м
[Cb cap Ac und]
+22.8 +17.3 71 +28 +28 душно 988.8 961.9 +27.2 0.2
15 11.06 ЮЗ 3 50 км {ливн. осадки} 8/4 1000 м
[Cb cap Ac trans Ci fib]
+19.4 +15.2 77 +21 +21 комфорт 988.6 961.3
18 11.06 Ю 3 50 км {ливн. осадки} 9/5 1380 м
[Cb cap Ac trans Ci fib]
+17.7 +13.9 78 +18 +18 990.5 963.0
21 11.06 ЮЗ 5-10
{14}
50 км 9/6 900 м
[Cb cap Ac trans Ci fib]
+14.2 +9.1 71 +13 +13 996.2 968.3
00 12.06 З 6-11
{13}
50 км {ливн. осадки} 10/10 500 м
[St]
+11.7 +8.5 81 +9 +9 1001.4 973.0 +11.5 0.8
03 12.06 З 7-12
{14}
50 км 10/10 1020 м
[Cu Sc]
+12.5 +4.7 59 +10 +10 1004.5 976.1 +10.7
06 12.06 З 6-11
{14}
20 км слаб. ливневой дождь 9/9 1000 м
[Cb cap]
+14.4 +6.1 57 +13 +13 1006.6 978.2
09 12.06 З 5-10
{12}
50 км {ливн. осадки} 8/8 1260 м
[Cb cap]
+14.7 +2.6 44 +13 +14 1008.4 980.1
12 12.06 СЗ 2
{11}
50 км {ливн. осадки} 8/3 1000 м
[Cb cap Ac cuf]
+13.7 +4.1 52 +13 +14 1010.5 982.0 +16.8 0.0
15 12.06 З 2 50 км 8/4 1500 м
[Sc diur, vesp Ac trans]
+10.9 +5.7 70 +10 +10 1011.8 983.0
18 12.06 З 2 50 км 3/0
[Ac trans Ci fib]
+5.3 +3.9 91 +3 +3 1013.5 984.0
21 12.06 штиль 0 50 км 6/0
[Ac trans Ci fib]
+4.1 +2.6 90 +3 +4 1014.3 984.7
00 13.06 В 2 50 км 6/0
[Ac trans Ci fib]
+10.2 +4.4 67 +9 +14 1013.6 984.6 +2.9
03 13.06 СВ 2 50 км 10/5 1380 м
[Cb cap Ac und]
+14.1 +5.9 58 +14 +16 1012.9 984.3
06 13.06 нст 1 50 км в посл. час ливневой дождь 10/4 1000 м
[Cb cap Ac und]
+13.4 +8.2 71 +14 +16 1013.1 984.5
09 13.06 нст 1 50 км 10/3 1000 м
[Sc Ac und]
+13.4 +5.9 60 +14 +15 1012.6 983.9
12 13.06 нст 1 50 км 9/5 1410 м
[Sc Ac trans]
+13.2 +8.6 74 +13 +14 1012.6 983.9 +14.5 0.7
15 13.06 нст 1 50 км 9/6 1500 м
[Sc Ac trans]
+11.2 +8.6 84 +11 +11 1012.6 983.7
18 13.06 штиль 0 50 км 4/3 1500 м
[Sc Ac trans]
+6.5 +5.6 94 +5 +5 1012.8 983.5
21 13.06 штиль 0 50 км 3/0
[Ac trans Ci fib]
+4.7 +3.5 92 +4 +5 1012.7 983.3
00 14.06 СВ 2 50 км 4/0
[Ac trans Ci fib]
+13.4 +7.3 67 +13 +18 1010.8 982.3 +4.0
03 14.06 СВ 2 50 км 6/0
[Ac trans Ci fib]
+18.8 +8.2 50 +20 +30 1009.4 981.4
06 14.06 В 2 50 км 10/0
[Ac trans Ci fib]
+22.4 +9.0 42 +24 +31 комфорт 1007.3 979.8
09 14.06 В 2 50 км 10/0
[Ac trans Ci fib]
+23.6 +7.9 37 +24 +28 комфорт 1005.8 978.4
12 14.06 В 3 50 км 10/0
[Ci ing]
+22.6 +8.0 39 +24 +24 комфорт 1005.6 978.1 +24.4
15 14.06 СВ 2 50 км 4/0
[Ac trans Ci fib]
+17.0 +6.0 48 +17 +17 1005.8 977.7
18 14.06 СВ 1 50 км 3/0
[Ci fib]
+11.4 +6.3 71 +11 +11 1005.5 977.0
21 14.06 СВ 1 50 км 1/0
[Ci fib]
+9.5 +6.5 82 +9 +10 1005.5 976.8
00 15.06 В 2 50 км ясно +18.0 +8.8 55 +19 +25 1004.6 976.7 +7.4
03 15.06 СВ 2 50 км 1/0
[Ci fib]
+23.1 +10.4 45 +25 +38 комфорт 1003.3 976.0
06 15.06 СВ 2 50 км 3/0
[Ci fib]
+27.6 +9.7 33 +28 +40 жарко 1001.8 974.8
09 15.06 СВ 1 50 км 5/0
[Ci fib]
+29.6 +9.5 29 +29 +35 жарко 1000.8 974.1
12 15.06 СВ 1 50 км 8/0
[Ac trans Ci fib]
+27.4 +10.9 36 +28 +29 жарко 1001.0 974.2 +30.2
15 15.06 нст 1 50 км 8/0
[Ac trans Ci fib]
+19.2 +13.2 68 +22 +22 комфорт 1002.4 974.7
18 15.06 нст 1 50 км 6/0
[Ac trans Ci fib]
+12.3 +10.2 87 +12 +12 1003.9 975.5
21 15.06 50 км 8/3 1500 м
[Cu hum Ac trans Ci fib]
+13.2 +10.5 84 1004.2 975.9
00 16.06 штиль 0 50 км 8/4 1500 м
[Sc diur, vesp Ac trans Ci fib]
+17.7 +11.3 66 +18 +21 1005.0 977.1 +12.0
03 16.06 нст 1 50 км 10/3 1500 м
[Sc diur, vesp Cs]
+22.2 +13.2 57 +25 +34 комфорт 1004.8 977.4
06 16.06 50 км 10/1 1500 м
[Cu hum Cs]
+26.9 +14.4 46 1004.6 977.5
09 16.06 50 км 10/3 1000 м
[Cu med, cong Cs]
+28.0 +14.4 43 1004.3 977.4
12 16.06 ЮЗ 2 50 км 8/3 1000 м
[Cb calv Ac cuf Ci fib]
+26.8 +15.9 51 +30 +30 душно 1005.0 977.9 +29.1
15 16.06 штиль 0 50 км 8/0
[Ac cast Ci ing]
+19.6 +15.7 78 +21 +21 комфорт 1006.8 979.1
18 16.06 штиль 0 50 км местами туман поземный 5/0
[Ac trans Ci fib]
+14.2 +13.3 94 +14 +14 1007.7 979.4
21 16.06 штиль 0 50 км 4/0
[Ac trans Ci fib]
+14.0 +12.3 89 +14 +14 1008.0 979.7
00 17.06 СВ 3 50 км 3/0
[Ac trans Ci fib]
+19.6 +12.1 62 +21 +26 комфорт 1007.7 979.9 +12.4
03 17.06 СВ 4 50 км 3/0
[Ac trans]
+27.3 +13.5 43 +29 +37 жарко 1006.1 979.0
06 17.06 В 4 50 км 3/3 1500 м
[Cu med, cong]
+30.4 +10.3 29 +30 +36 жарко 1004.9 978.1
09 17.06 СВ 3 50 км 1/1 1500 м
[Cu hum]
+31.0 +8.3 24 +30 +34 жарко 1003.9 977.2
12 17.06 СВ 1 50 км 3/0
[Ci fib]
+28.9 +9.4 30 +29 +29 жарко 1003.8 976.9 +31.3
15 17.06 СВ 1 50 км 3/0
[Ci fib]
+22.4 +11.5 50 +25 +25 комфорт 1005.0 977.5
18 17.06 СВ 61 50 км 3/0
[Ci fib]
+21.4 +11.5 53 +23 +23 комфорт 1005.5 977.8
21 17.06 СВ 3 50 км 3/0
[Ci fib]
+19.6 +8.5 49 +21 +21 комфорт 1005.3 977.5

 

Местоположение метеостанции Ленск (Якутия, Россия): широта 60.72 долгота 114.80 высота над уровнем моря 241 м.

В архиве по умолчанию представлена погода в Ленске за последнюю неделю. Архивные данные за месяц целиком и за предыдущие месяцы, начиная с января 2011 года, Вы можете получить, выбрав интересующий диапазон дат из раскрывающегося списка и нажав кнопку "Ввод!".


*Определитесь, кто Вы:
робот инопланетянин человек

Внимание! Время в таблицах - всемирное. Для получения местного времени необходимо прибавить поправку, которая равна 9 ч.

Смотрите также архив погоды в соседних городах и на ближайших метеорологических станциях:

Погода в Дорожном (Якутия, Россия) (101 км)
Погода в Комаке (Якутия, Россия) (177 км)
Погода в Маче (Якутия, Россия) (177 км)
Погода в Крестяхе (Якутия, Россия) (186 км)
Погода в Витиме (Якутия, Россия) (190 км)
Погода в Мирном (Якутия, Россия) (208 км)
Погода в Сунтаре (Якутия, Россия) (219 км)
Погода в Перевозе (Иркутская область, Россия) (224 км)
Погода в Килиере (Якутия, Россия) (245 км)
Погода в Туой-Хае (Якутия, Россия) (277 км)

Пояснения к столбцам:

Ветер - указаны скорость ветра в м/с - средняя за 10 мин, порывы в срок и между сроками (в фигурных скобках) и направление, откуда дует ветер: С - северный, СВ - северо-восточный, В - восточный, ЮВ - юго-восточный, Ю - южный, ЮЗ - юго-западный, З - западный, СЗ - северо-западный.
Видимость - горизонтальная дальность видимости в метрах или километрах. При видимости от 1 до 10 км при отсутствии осадков обычно наблюдается дымка, при ухудшении видимости до 1 км и менее - туман. В сухую погоду видимость может ухудшаться дымом, пылью или мглою.
Явления - указаны атмосферные явления, наблюдавшиеся в срок или в последний час перед сроком; фигурными скобками обозначены явления, наблюдавшиеся между сроками (за 1-3 часа до срока); квадратными скобками обозначены град или гололедные отложения с указанием их диаметра в мм.
Облачность - указаны через наклонную черту общая и нижняя облачность в баллах и высота нижней границы облаков в метрах; квадратными скобками обозначены формы облаков: Ci - перистые, Cs - перисто-слоистые, Cc - перисто-кучевые, Ac - высококучевые, As - высокослоистые, Sc - слоисто-кучевые, Ns - слоисто-дождевые, Cu - кучевые, Cb - кучево-дождевые. Подробнее классификацию облаков см. в Атласе облаков (PDF).
T - Температура воздуха - температура, измеренная на высоте 2 м над землей.
Td - Температура точки росы - температура, при понижении до которой содержащийся в воздухе водяной пар достигнет насыщения.
f - Относительная влажность воздуха - влажноcть воздуха, измеренная на высоте 2 м над землей.
Te - Эффективная температура - температура, которую ощущает одетый по сезону человек в тени. Характеристика душности погоды. При расчете учитывается влияние влажности воздуха и скорости ветра на теплоощущения человека.
Tes - Эффективная температура на солнце - температура, которую ощущает человек, с поправкой на солнечный нагрев. Характеристика знойности погоды. Зависит от высоты солнца над горизонтом, облачности и скорости ветра. Ночью, в пасмурную погоду, а также при ветре 12 м/с и более поправка равна нулю.
P - Атмосферное давление - приведенное к уровню моря атмосферное давление.
Po - Атмосферное давление - измеренное на уровне метеостанции атмосферное давление.
Tmin - Минимальная температура - минимум температуры воздуха на высоте 2 м над землей.
Tmax - Максимальная температура - максимум температуры воздуха на высоте 2 м над землей.
R - Количество осадков - Количество выпавших осадков за период времени, мм. При наведении курсора мыши на число - период времени, за который выпало указанное количество осадков.
R24 - Количество осадков - Количество выпавших осадков за 24 часа, мм.
S - Снежный покров - Высота снежного покрова, см. При наведении курсора мыши на число - состояние снежного покрова и степень покрытия местности в баллах.